Regional Weather Roundup
Issued by NWS

Home | Current Version | Previous Version | Graphics & Text | Print | Product List | Glossary On
Versions: 1 2 3 4 5 6 7 8 9 10 11 12 13 14 15 16 17 18 19 20 21 22 23 24 25 26 27 28 29 30 31 32 33 34 35 36 37 38 39 40 41 42 43 44 45 46 47 48 49 50
000
ASUS43 KIND 260109
RWRIN

WEATHER ROUNDUP FOR INDIANA
NATIONAL WEATHER SERVICE INDIANAPOLIS IN
800 PM EST TUE NOV 25 2014

NOTE: "FAIR" INDICATES FEW OR NO CLOUDS BELOW 12,000 FEET WITH NO
SIGNIFICANT WEATHER AND/OR OBSTRUCTIONS TO VISIBILITY.

* - STATION DOES NOT REPORT WEATHER SUCH AS PRECIPITATION OR FOG.

+ - STATION NOT QUALITY CONTROLLED BY THE NATIONAL WEATHER SERVICE.
    USE DATA WITH CAUTION...ESPECIALLY DEWPOINT AND RELATIVE
    HUMIDITY OBSERVATIONS.

INZ001>003-010>013-019-020-260200-
NORTHWEST INDIANA

CITY           SKY/WX    TMP DP  RH WIND       PRES   REMARKS
GARY /AIRPORT/ CLOUDY    27  18  69 W6        30.20R WCI  20
KNOX *+        CLOUDY    25  19  78 SW3       30.18S
LA PORTE +     CLOUDY    27  20  76 SW7       30.18S WCI  19
MICHIGAN CITY+ CLOUDY    27  18  69 S3        30.19S
MONTICELLO +   CLOUDY    25  20  79 CALM      30.19S
RENSSELAER +   CLOUDY    27  23  86 W5        30.20R WCI  21
VALPARAISO     CLOUDY    23  17  78 SW3       30.19R

$$

LMZ046-743>745-260200-
SOUTHERN LAKE MICHIGAN

STATION/POSITION TIME  TEMP WIND        PRES
                       AIR  DIR/SP/G
                 (UTC) (F)  (DEG/KT/KT) (MB)
MICHIGAN CITY    0100   25  170/  7/  8   N/A

$$

INZ004-005-014>016-021>024-260200-
NORTH CENTRAL INDIANA

CITY           SKY/WX    TMP DP  RH WIND       PRES   REMARKS
GOSHEN         CLOUDY    26  18  71 SW3       30.18R
LOGANSPORT +   CLOUDY    27  19  74 CALM      30.21R
PERU/GRISSOM   CLOUDY    25  23  90 W3        30.19R
ROCHESTER +    CLOUDY    28  23  80 SW3       30.20R
SOUTH BEND     CLOUDY    26  19  74 SW8       30.18R WCI  18
WARSAW +       CLOUDY    27  19  74 CALM      30.19R

$$

INZ006>009-017-018-025>027-260200-
NORTHEAST INDIANA

CITY           SKY/WX    TMP DP  RH WIND       PRES   REMARKS
ANGOLA *+      CLOUDY    27  19  74 CALM      30.17R
AUBURN +       CLOUDY    28  19  69 CALM      30.20R
FORT WAYNE     CLOUDY    26  20  77 SW5       30.20R WCI  20
HUNTINGTON +   CLOUDY    26  20  80 NW3       30.20R

$$

INZ028-029-035-036-043>045-051>053-260200-
WEST CENTRAL INDIANA

CITY           SKY/WX    TMP DP  RH WIND       PRES   REMARKS
GREENCASTLE +  CLOUDY    28  21  74 N3        30.20S
LAFAYETTE      CLOUDY    26  20  77 CALM      30.21R
TERRE HAUTE    CLOUDY    29  21  72 VRB3      30.22R

$$

INZ030>032-037>040-046>048-054>057-064-065-260200-
CENTRAL INDIANA

CITY           SKY/WX    TMP DP  RH WIND       PRES   REMARKS
CP ATTERBURY + PTCLDY    30  27  86 CALM      30.19R
COLUMBUS       PTCLDY    28  27  93 N3        30.19S
FRANKFORT +    CLOUDY    27  23  85 CALM      30.21S
INDIANAPOLIS   CLOUDY    28  21  75 NW7       30.19R WCI  21
-EAGLE CREEK   CLOUDY    28  22  78 W3        30.19S
KOKOMO *+      CLOUDY    27  19  74 W3        30.20S
MARION +         N/A     26  22  83 NW6       30.20R WCI  20
MT COMFORT *+  CLOUDY    28  19  69 NW6       30.19S WCI  22
SHELBYVILLE    CLOUDY    31  23  72 NW7       30.18S WCI  24
ZIONSVILLE +   CLOUDY    27  20  75 CALM      30.19S

$$

INZ033-034-041-042-049-050-058-059-260200-
EAST CENTRAL INDIANA

CITY           SKY/WX    TMP DP  RH WIND       PRES   REMARKS
MUNCIE         CLOUDY    29  23  78 W3        30.19R

$$

INZ060-061-067>069-081>083-085>088-260200-
SOUTHWEST INDIANA

CITY           SKY/WX    TMP DP  RH WIND       PRES   REMARKS
EVANSVILLE     MOCLDY    33  26  75 N3        30.21R
HUNTINGBURG *+ MOCLDY    32  25  74 N3        30.20R
WASHINGTON +   CLOUDY    31  27  84 N7        30.21R WCI  24

$$

INZ062-063-066-070>080-084-089>092-260200-
SOUTH CENTRAL AND SOUTHEAST INDIANA

CITY           SKY/WX    TMP DP  RH WIND       PRES   REMARKS
BLOOMINGTON    CLOUDY    31  25  78 CALM      30.18R
SEYMOUR +      PTCLDY    34  27  75 N5        30.18R WCI  30

$$




USA.gov is the U.S. government's official web portal to all federal, state and local government web resources and services.